STARLINK-2288

Last updated on Sat Apr 24 2021 00:02:02 GMT+0000 (Coordinated Universal Time)

1 48034U 21024BK 21113.25001157 -.00284257 00000-0 -20813-2 0 9993 2 48034 53.0487 55.6442 0001110 69.8763 110.2681 15.73294514 1827

Satellite not in orbit

STARLINK-2288